Showing default

COSMOS 1995, 19786

Orbit data source: Space-Track

COSMOS 1995, 19786 is a payload satellite owned by UNKS (CIS) in LEO that was launched on Fri, 10 Feb 1989 UTC via a TSIKLON-3 launch vehicle from the Plesetsk Missile And Space Complex (PKMTR). Payload-class satellites include a variety of spacecraft equipped with specific instruments for various scientific and technological missions. These include communications satellites like Starlink; space stations such as the ISS; scientific satellites like the Hubble; Earth observation satellites from companies like Planet Labs, Umbra, and HawkEye 360; GPS; miniature CubeSats for education and research; and military/defense satellites.

Loading next visibility...
Identifier
19786, 1989-009B
Orbit
LEO
Last TLE update
4 hours ago
Origin
Manufacturer
NPO PM
Mission
Defense Communications
Bus & Motor
STRELA-3, Unknown motor
Mass
225 kg wet, 225 kg dry
Launch date (UTC)
1989-02-10 (36 years ago)
Launch vehicle
TSIKLON-3
Launch site
Plesetsk Missile And Space Complex (PKMTR)
Object type
Payload
Rocket body
Debris
Shape & HBR
Cyl, 1.6 m
Radar Cross Section
1.257 m², Large (>1 m²)

Expand to show TLE details & history

TLE from 4 hours ago
0 COSMOS 1995
1 19786U 89009B   25182.19061925  .00000012  00000-0  62905-5 0  9998
2 19786  82.6218 251.3386 0003519 176.1477 211.7543 12.62221304676251
Epoch: 2025-07-01T04:34Z
TLE epoch observation values (Epoch: 2025-07-01T04:34:29.503Z)
Latitude
27.66772°
Longitude
-92.90034°
Altitude
1,419.376 km
Speed
7.152 km/s
True Right ascension
17h 00m 50s
True Declination
27° 32' 19"
Sunlit
Object was in daylight at epoch
Visualization orbit readout
Latitude
39.03818°
Longitude
77.11235°
Altitude
1,416.914 km
Speed
7.157 km/s
Apparent Right ascension
06h 13m 39s
Apparent Declination
5° 00' 45"
Sunlit
Object is in daylight
Visualization observer readout
Local Sidereal Time
20:36:44
Azimuth
44.834° NE
Elevation
-34.324°
Doppler factor
1
Orbital elements
Apogee altitude
1,413.85 km
Perigee altitude
1,408.367 km
Semi-major axis
7,789.246 km
Eccentricity
0.00035
Inclination
82.6218°
RAAN
251.3386°
Arg. of periapsis
176.1477°
True anomaly
Unknown
Mean anomaly
211.7543°
Eccentric anomaly
Unknown
Mean motion
3.15719 °/min
Orbital period
114.03 mins
BSTAR
0.0000062905
Loading maneuver chart data...
Loading SW <> Apogee altitude chart data...
Loading historical data...
Loading historical data...
Loading historical data...
Loading historical data...
Loading historical data...
Loading historical data...
Loading historical data...

COSMOS 1995 Visibility forecast

Observer location: undefined°, undefined°

Span
Click to sort rows by Start time (UTC) header in descending order
Start Az.
Max El. time (UTC)
Max El. Az.
Max El.
End time (UTC)
End Az.
8 mins2025-07-01 14:34:31.784Z31.875° NE2025-07-01 14:38:31.784Z62.971° ENE15.713°2025-07-01 14:42:31.784Z93.779° ESE
15 mins2025-07-01 16:27:31.784Z353.974° N2025-07-01 16:34:31.784Z46.669° ENE44.814°2025-07-01 16:42:31.784Z171.96° S
8 mins2025-07-01 18:25:31.784Z307.051° NW2025-07-01 18:28:31.784Z282.41° WNW17.089°2025-07-01 18:33:31.784Z244.302° WSW
7 mins2025-07-02 03:25:31.784Z100.356° ESE2025-07-02 03:28:31.784Z77.175° E14.818°2025-07-02 03:32:31.784Z47.221° ENE
15 mins2025-07-02 05:15:31.784Z182.781° SSW2025-07-02 05:22:31.784Z45.064° ENE44.836°2025-07-02 05:30:31.784Z8.585° NNE
9 mins2025-07-02 07:14:31.784Z264.478° W2025-07-02 07:18:31.784Z297.528° NW17.912°2025-07-02 07:23:31.784Z336.101° NNW
|